SL-12 DEB, 41704

Orbit data source: Space-Track

SL-12 DEB, 41704 is space debris in HEO originally from a launch on Mon, 01 Mar 2010 UTC launched from the Tyuratam Missile And Space Complex (TTMTR). Debris objects in space refer to the collection of defunct objects orbiting the Earth. Examples of debris include non-operational satellites, rocket bodies, and fragments generated from explosions, collisions, or faulty payload assembly.

Loading next visibility...
Identifier
41704, 2010-007W
Orbit
HEO
Last TLE update
10 months ago
Origin
Manufacturer
RKKE
Mission
Spacecraft
Bus & Motor
Unknown
Mass
Unknown
Launch date (UTC)
2010-03-01 (15 years ago)
Launch vehicle
Unknown
Launch site
Tyuratam Missile And Space Complex (TTMTR)
Object type
Payload
Rocket body
Debris
Shape & HBR
Unknown
Radar Cross Section
Small (<0.1 m²)

Expand to show TLE details & history

TLE from 10 months ago
0 SL-12 DEB
1 41704U 10007W   24191.70386788 -.00001195  00000-0 -29034-1 0  9995
2 41704  65.1010  97.7847 5402330 307.8265  14.5457  4.35437325149197
Epoch: 2024-07-09T16:53Z
Definitive object data (Epoch: 2024-07-09T16:53:34.184Z)
Latitude
-0.00011°
Longitude
-83.72552°
Altitude
2,057.826 km
Speed
8.328 km/s
True Right ascension
06h 31m 08s
True Declination
0° 00' 00"
Sunlit
Object was in daylight at TLE epoch
Visualization TLE readout
Latitude
56.57621°
Longitude
-53.1259°
Altitude
18,026.245 km
Speed
2.748 km/s
Apparent Right ascension
07h 08m 07s
Apparent Declination
52° 13' 58"
Sunlit
Object is in daylight
Visualization observer readout
Local Sidereal Time
13:11:55
Azimuth
315.022° NNW
Elevation
29.963°
Doppler factor
1
Orbital elements
Apogee altitude
18,019.147 km
Perigee altitude
904.57 km
Semi-major axis
15,839.996 km
Eccentricity
0.540233
Inclination
65.101°
RAAN
97.7847°
Arg. of periapsis
307.8265°
True anomaly
52.31546°
Mean anomaly
14.5457°
Eccentric anomaly
30.04178°
Mean motion
1.08871 °/min
BSTAR
-0.029034
Orbital period
330.67 mins
Loading maneuver chart data...
Loading SW <> Apogee altitude chart data...
Loading historical data...
Loading historical data...
Loading historical data...
Loading historical data...
Loading historical data...
Loading historical data...
Loading historical data...

SL-12 DEB Visibility forecast

Observer location: undefined°, undefined°

Span
Click to sort rows by Start time (UTC) header in descending order
Start Az.
Max El. time (UTC)
Max El. Az.
Max El.
End time (UTC)
End Az.
105 mins2025-05-09 05:03:19.440Z314.998° NW2025-05-09 05:29:19.440Z304.15° NW27.635°2025-05-09 06:48:19.440Z258.683° W
116 mins2025-05-09 13:42:19.440Z130.274° SE2025-05-09 14:05:19.440Z72.128° E31.298°2025-05-09 15:38:19.440Z28.055° NE
245 mins2025-05-09 19:21:19.440Z264.094° W2025-05-09 20:15:19.440Z345.347° N39.655°2025-05-09 23:26:19.440Z107.652° ESE
201 mins2025-05-10 01:42:19.440Z326.732° NNW2025-05-10 03:55:19.440Z286.497° WNW39.278°2025-05-10 05:03:19.440Z223.846° SW
|